N216TB TFFJ-TNCS

Flight info

Callsign N216TB
Flight time 0h 27m
Altitude 2500
Route DCT CS200 DCT CS100 DCT
Aircraft K100/L-L/C

Departure

Time 2026-04-29 13:43
Airport St. Jean Airport (TFFJ)

Arrival

Time 2026-04-29 14:10
Airport Juancho E. Yrausquin Airport (TNCS)
Time Latitude Longitude Altitude Speed Heading
2026-04-29 13:39 17.90488 -62.84637 57 ft 0 kts 167°
2026-04-29 13:41 17.90479 -62.84639 57 ft 5 kts 201°
2026-04-29 13:42 17.90443 -62.84657 54 ft 5 kts 178°
2026-04-29 13:42 17.90433 -62.84640 53 ft 2 kts 90°
2026-04-29 13:42 17.90433 -62.84639 53 ft 1 kts 89°
2026-04-29 13:43 17.90443 -62.84326 34 ft 80 kts 85°
2026-04-29 13:43 17.90449 -62.83665 306 ft 94 kts 92°
2026-04-29 13:43 17.90791 -62.83143 822 ft 104 kts
2026-04-29 13:43 17.91578 -62.83231 1264 ft 122 kts 357°
2026-04-29 13:44 17.92450 -62.83301 1701 ft 127 kts 353°
2026-04-29 13:44 17.93140 -62.83874 2131 ft 136 kts 292°
2026-04-29 13:44 17.93068 -62.84837 2517 ft 139 kts 245°
2026-04-29 13:44 17.92691 -62.85873 2530 ft 162 kts 248°
2026-04-29 13:45 17.92292 -62.87010 2534 ft 175 kts 248°
2026-04-29 13:45 17.91865 -62.88222 2537 ft 178 kts 247°
2026-04-29 13:45 17.91425 -62.89429 2535 ft 175 kts 242°
2026-04-29 13:45 17.90620 -62.90333 2538 ft 170 kts 213°
2026-04-29 13:46 17.89646 -62.91046 2535 ft 171 kts 212°
2026-04-29 13:46 17.88672 -62.91766 2537 ft 173 kts 212°
2026-04-29 13:46 17.87679 -62.92503 2537 ft 177 kts 213°
2026-04-29 13:46 17.86756 -62.93395 2540 ft 184 kts 229°
2026-04-29 13:47 17.86133 -62.94547 2529 ft 184 kts 244°
2026-04-29 13:47 17.85646 -62.95774 2532 ft 181 kts 245°
2026-04-29 13:47 17.85151 -62.96981 2528 ft 179 kts 244°
2026-04-29 13:47 17.84646 -62.98174 2526 ft 177 kts 244°
2026-04-29 13:48 17.84149 -62.99350 2522 ft 176 kts 244°
2026-04-29 13:48 17.83659 -63.00518 2518 ft 175 kts 244°
2026-04-29 13:48 17.83168 -63.01684 2525 ft 175 kts 244°
2026-04-29 13:48 17.83092 -63.01864 2528 ft 176 kts 243°
2026-04-29 14:00 17.82996 -63.02130 2516 ft 173 kts 259°
2026-04-29 14:00 17.82771 -63.03352 2440 ft 170 kts 263°
2026-04-29 14:00 17.82338 -63.04506 2356 ft 171 kts 244°
2026-04-29 14:00 17.81734 -63.05579 2408 ft 172 kts 236°
2026-04-29 14:01 17.81125 -63.06673 2518 ft 176 kts 238°
2026-04-29 14:01 17.80561 -63.07838 2516 ft 181 kts 243°
2026-04-29 14:01 17.80053 -63.09041 2518 ft 180 kts 244°
2026-04-29 14:01 17.79559 -63.10229 2470 ft 181 kts 244°
2026-04-29 14:02 17.79049 -63.11448 2274 ft 181 kts 244°
2026-04-29 14:02 17.78542 -63.12654 2077 ft 181 kts 244°
2026-04-29 14:02 17.78033 -63.13855 1879 ft 179 kts 245°
2026-04-29 14:02 17.77527 -63.15052 1679 ft 179 kts 245°
2026-04-29 14:03 17.77026 -63.16243 1522 ft 176 kts 245°
2026-04-29 14:03 17.76540 -63.17391 1523 ft 169 kts 245°
2026-04-29 14:03 17.76066 -63.18515 1519 ft 167 kts 245°
2026-04-29 14:03 17.75604 -63.19608 1525 ft 166 kts 245°
2026-04-29 14:04 17.75137 -63.20711 1519 ft 166 kts 244°
2026-04-29 14:04 17.74673 -63.21813 1518 ft 166 kts 244°
2026-04-29 14:04 17.74203 -63.22923 1519 ft 167 kts 245°
2026-04-29 14:04 17.73734 -63.24032 1513 ft 166 kts 244°
2026-04-29 14:05 17.73267 -63.25137 1516 ft 167 kts 244°
2026-04-29 14:05 17.72754 -63.26220 1507 ft 166 kts 234°
2026-04-29 14:05 17.72340 -63.26891 1526 ft 164 kts 234°
2026-04-29 14:05 17.71500 -63.28208 1510 ft 166 kts 233°
2026-04-29 14:06 17.70803 -63.29185 1385 ft 164 kts 231°
2026-04-29 14:06 17.70109 -63.30074 1429 ft 156 kts 221°
2026-04-29 14:06 17.69205 -63.30698 1267 ft 152 kts 194°
2026-04-29 14:06 17.68223 -63.30697 1141 ft 137 kts 154°
2026-04-29 14:07 17.67604 -63.30092 1141 ft 115 kts 114°
2026-04-29 14:07 17.67302 -63.29397 1191 ft 95 kts 108°
2026-04-29 14:07 17.67185 -63.28972 1194 ft 88 kts 103°
2026-04-29 14:07 17.67052 -63.28345 1112 ft 89 kts 104°
2026-04-29 14:08 17.66798 -63.27588 1074 ft 83 kts 114°
2026-04-29 14:08 17.66550 -63.27037 1005 ft 83 kts 113°
2026-04-29 14:08 17.66313 -63.26496 957 ft 80 kts 112°
2026-04-29 14:08 17.66086 -63.25971 908 ft 80 kts 110°
2026-04-29 14:09 17.65948 -63.25608 880 ft 81 kts 109°
2026-04-29 14:09 17.65731 -63.25064 844 ft 80 kts 110°
2026-04-29 14:09 17.65535 -63.24519 772 ft 79 kts 110°
2026-04-29 14:09 17.65339 -63.24017 665 ft 72 kts 112°
2026-04-29 14:10 17.65143 -63.23537 547 ft 71 kts 115°
2026-04-29 14:10 17.64891 -63.22912 419 ft 73 kts 110°
2026-04-29 14:10 17.64686 -63.22402 204 ft 73 kts 111°
2026-04-29 14:10 17.64509 -63.21973 131 ft 49 kts 113°
2026-04-29 14:11 17.64459 -63.21891 125 ft 0 kts 231°
2026-04-29 14:11 17.64461 -63.21898 126 ft 2 kts 311°
2026-04-29 14:11 17.64474 -63.21911 123 ft 8 kts 315°